Change the Weather History Date:

Thursday, December 19, 2013

  Actual Average Record
Temperature  
Mean Temperature 72 °F -  
Max Temperature 86 °F 79 °F 89 °F (2002)
Min Temperature 58 °F 54 °F 48 °F (2005)
Cooling Degree Days 7    
Growing Degree Days 22 (Base 50)    
Moisture  
Dew Point 49 °F    
Average Humidity 55    
Maximum Humidity 94    
Minimum Humidity 14    
Precipitation  
Precipitation 0.00 in 0.00 in - ()
Sea Level Pressure  
Sea Level Pressure 29.89 in    
Wind  
Wind Speed 2 mph ()    
Max Wind Speed 7 mph    
Max Gust Speed -    
Visibility 2.5 miles    
Events      
Averages and records for this station are not official NWS values.
T = Trace of Precipitation, MM = Missing Value Source: Averaged Metar Reports

Daily Weather History Graph

Daily Weather History Graph

Search for Another Location

Airport or City:

Trip Planner

Search our weather history database for the weather conditions in past years. The results will help you decide how hot, cold, wet, or windy it might be!

Date:

Astronomy

Dec. 19, 2013 Rise Set
Actual Time 7:14 AM IST 5:58 PM IST
Civil Twilight 6:50 AM IST 6:22 PM IST
Nautical Twilight 6:22 AM IST 6:50 PM IST
Astronomical Twilight 5:54 AM IST 7:18 PM IST
Moon 7:47 PM IST (12/19) 8:26 AM IST (12/19)
Length of Visible Light 11h 32m
Length of Day
10h 43m
Full, 97% of the Moon is Illuminated
Dec 19
Full
Dec 25
Last Quarter
Jan 1
New
Jan 8
First Quarter
Jan 16
Full

Hourly Weather History & Observations

Time (IST) Temp. Heat Index Dew Point Humidity Pressure Visibility Wind Dir Wind Speed Gust Speed Precip Events Conditions
12:10 AM 64.4 °F - 59.0 °F 83% 29.89 in 2.5 mi Calm Calm - N/A   Haze
1:10 AM 62.6 °F - 57.2 °F 82% 29.86 in 2.5 mi Calm Calm - N/A   Haze
1:40 AM 62.6 °F - 59.0 °F 88% 29.86 in 2.5 mi Calm Calm - N/A   Haze
2:30 AM 62 °F - 58 °F 84% 29.88 in 2 mi Calm Calm - -   Haze
2:40 AM 60.8 °F - 59.0 °F 94% 29.86 in 2.5 mi Calm Calm - N/A   Haze
3:10 AM 60.8 °F - 59.0 °F 94% 29.86 in 2.5 mi Calm Calm - N/A   Haze
3:40 AM 60.8 °F - 59.0 °F 94% 29.86 in 2.5 mi Calm Calm - N/A   Haze
4:40 AM 60.8 °F - 57.2 °F 88% 29.86 in 2.2 mi Calm Calm - N/A   Haze
5:10 AM 60.8 °F - 59.0 °F 94% 29.86 in 2.2 mi Calm Calm - N/A   Haze
5:30 AM 60 °F - 58 °F 90% 29.87 in 1 mi Calm Calm - -   Mist
5:40 AM 60.8 °F - 59.0 °F 94% 29.86 in 2.2 mi Calm Calm - N/A   Haze
6:40 AM 60.8 °F - 59.0 °F 94% 29.89 in 1.9 mi NW 2.3 mph - N/A   Haze
7:10 AM 60.8 °F - 59.0 °F 94% 29.89 in 1.6 mi North 2.3 mph - N/A   Haze
8:10 AM 62.6 °F - 60.8 °F 94% 29.92 in 1.0 mi Calm Calm - N/A   Mist
8:30 AM 62 °F - 60 °F 90% 29.92 in 1 mi Calm Calm - -   Mist
9:40 AM 69.8 °F - 66.2 °F 88% 29.95 in 1.1 mi NNW 2.3 mph - N/A   Mist
10:10 AM 71.6 °F - 64.4 °F 78% 29.95 in 1.2 mi NW 2.3 mph - N/A   Haze
10:40 AM 77.0 °F - 64.4 °F 65% 29.95 in 1.9 mi WNW 3.5 mph - N/A   Haze
11:10 AM 78.8 °F - 64.4 °F 61% 29.95 in 1.9 mi WNW 2.3 mph - N/A   Smoke
11:30 AM 79 °F - 63 °F 48% 29.93 in 1 mi Calm Calm - -   Haze
11:40 AM 80.6 °F 80.8 °F 57.2 °F 45% 29.92 in 2.2 mi WNW 5.8 mph - N/A   Smoke
12:10 PM 82.4 °F - 51.8 °F 35% 29.92 in 2.5 mi WNW 4.6 mph - N/A   Smoke
1:10 PM 84.2 °F - 50.0 °F 30% 29.89 in 3.1 mi NNW 4.6 mph - N/A   Smoke
1:40 PM 84.2 °F - 41.0 °F 22% 29.86 in 3.7 mi NW 6.9 mph - N/A   Unknown
2:30 PM 85 °F - 43 °F 14% 29.86 in 2 mi NW 3.5 mph - -   Clear
2:40 PM 86.0 °F - 39.2 °F 19% 29.83 in 3.7 mi North 5.8 mph - N/A   Unknown
3:10 PM 86.0 °F - 33.8 °F 15% 29.83 in 3.7 mi NNW 6.9 mph - N/A   Unknown
3:40 PM 86.0 °F - 33.8 °F 15% 29.83 in 3.7 mi NNW 6.9 mph - N/A   Unknown
4:10 PM 84.2 °F - 33.8 °F 16% 29.83 in 3.7 mi NNW 5.8 mph - N/A   Unknown
4:40 PM 84.2 °F - 35.6 °F 18% 29.83 in 3.7 mi NNW 6.9 mph - N/A   Unknown
5:10 PM 82.4 °F - 37.4 °F 20% 29.83 in 3.7 mi North 5.8 mph - N/A   Unknown
5:30 PM 82 °F - 47 °F 19% 29.86 in 2 mi NW 3.5 mph - -   Clear
5:40 PM 78.8 °F - 37.4 °F 23% 29.83 in 3.7 mi NNW 3.5 mph - N/A   Unknown
6:10 PM 73.4 °F - 39.2 °F 29% 29.86 in 3.7 mi North 3.5 mph - N/A   Unknown
6:40 PM 69.8 °F - 41.0 °F 35% 29.86 in 3.7 mi North 3.5 mph - N/A   Unknown
7:10 PM 68.0 °F - 37.4 °F 33% 29.86 in 3.7 mi North 3.5 mph - N/A   Unknown
7:40 PM 68.0 °F - 42.8 °F 40% 29.89 in 3.7 mi NNW 2.3 mph - N/A   Unknown
8:30 PM 62 °F - 46 °F 45% 29.92 in 2 mi Calm Calm - -  
8:40 PM 66.2 °F - 39.2 °F 37% 29.92 in 2.5 mi NNW 2.3 mph - N/A   Smoke
9:10 PM 62.6 °F - 37.4 °F 39% 29.92 in 2.5 mi NNW 2.3 mph - N/A   Smoke
9:40 PM 60.8 °F - 39.2 °F 45% 29.92 in 2.5 mi North 3.5 mph - N/A   Smoke
10:10 PM 59.0 °F - 41.0 °F 51% 29.92 in 2.5 mi North 3.5 mph - N/A   Smoke
10:40 PM 59.0 °F - 41.0 °F 51% 29.92 in 2.5 mi North 3.5 mph - N/A   Smoke
11:10 PM 59.0 °F - 41.0 °F 51% 29.92 in 2.5 mi North 2.3 mph - N/A   Smoke
11:30 PM 62 °F - 44 °F 39% 29.94 in 2 mi North 3.5 mph - -  
11:40 PM 59.0 °F - 41.0 °F 51% 29.92 in 2.5 mi North 2.3 mph - N/A   Smoke